Location: Newark
(8.8858°N, 64.2608°W)
Time: 05:33:10
(UTC+00:00)

Envisat - Visible Passes

Search period start: 29 September 2020 00:00
Search period end: 09 October 2020 00:00
Orbit: 764 x 766 km, 98.1° (Epoch: 28 September)

Date Brightness Start Highest point End Pass type
(mag) Time Alt. Az. Time Alt. Az. Time Alt. Az.
29 Sep 4.8 09:32:41 10° NE 09:37:21 37° E 09:42:01 10° SSE visible
30 Sep 6.3 08:58:15 10° ENE 09:00:36 13° E 09:02:57 10° SE visible
01 Oct 5.4 22:34:22 10° SSW 22:38:38 27° W 22:42:54 10° NW visible
02 Oct 5.4 09:21:44 10° NE 09:26:01 28° E 09:30:17 10° SSE visible
03 Oct 6.3 23:01:45 10° SW 23:04:02 13° W 23:06:21 10° WNW visible
04 Oct 4.8 22:22:38 10° SSW 22:27:17 37° W 22:31:57 10° NW visible
05 Oct 5.9 09:10:57 10° NE 09:14:39 20° E 09:18:21 10° SSE visible
06 Oct 6.1 22:49:18 10° SW 22:52:41 18° W 22:56:05 10° WNW visible
07 Oct 4.5 09:35:17 10° NNE 09:40:04 42° ESE 09:44:50 10° S visible
08 Oct 6.2 09:00:29 10° ENE 09:03:18 15° E 09:06:07 10° SE visible
